EW8829 Weather Reports


time (UTC)temp
F
wind
direction
speed
knots
gust
knots
rain 1hr
in
rain 24hr
in
rain mn
in
humidity
%
barometer
mb
20260901081131 65 322 0.0 0.9 0.05 0.03 0.03 99 1015.4
20260901080631 65 274 0.9 1.7 0.05 0.02 0.02 99 1015.4
20260901080129 65 32 0.9 0.9 0.02 0.02 0.02 99 1015.4
20260901075625 65 102 0.9 1.7 0.02 0.02 0.02 99 1015.5
20260901075125 65 57 0.9 1.7 0.05 0.02 0.02 99 1015.5
20260901074624 65 267 1.7 2.6 0.07 0.01 0.01 99 1015.5
20260901074119 65 310 0.9 2.6 0.02 0.00 0.00 99 1015.5
20260901073617 65 324 0.9 0.9 0.00 0.00 0.00 99 1015.3
20260901073117 65 19 0.0 0.0 0.00 0.00 0.00 99 1015.2
20260901072612 65 105 0.9 0.9 0.00 0.00 0.00 99 1015.4
20260901072108 65 89 0.0 0.0 0.00 0.00 0.00 99 1015.4
20260901071607 65 180 0.0 0.0 0.00 0.00 0.00 99 1015.4
20260901071106 65 52 0.0 0.9 0.00 0.00 0.00 99 1015.6
20260901070601 65 92 0.9 1.7 0.00 0.00 0.00 99 1015.5
20260901070056 65 95 0.9 1.7 0.00 0.00 0.00 99 1015.4
20260901065550 65 110 0.0 0.9 0.00 0.00 0.00 99 1015.5
20260901065044 65 235 0.0 0.9 0.00 0.00 0.00 99 1015.6
20260901064542 65 303 1.7 1.7 0.00 0.00 0.00 99 1015.7
20260901064038 65 44 0.0 0.9 0.00 0.00 0.00 99 1015.4
20260901063535 65 36 0.9 0.9 0.00 0.00 0.00 99 1015.6
20260901063030 65 322 0.0 0.0 0.00 0.00 0.00 99 1015.5
20260901062526 65 71 0.0 0.9 0.00 0.00 0.00 99 1015.7
20260901062022 65 129 0.0 0.0 0.00 0.00 0.00 99 1015.6
20260901061519 65 322 0.0 0.0 0.00 0.00 0.00 99 1016.0
20260901061018 65 322 0.0 0.0 0.00 0.00 0.00 99 1015.9
20260901060513 65 326 0.0 0.0 0.00 0.00 0.00 99 1015.8
20260901060008 64 283 0.0 0.0 0.00 0.00 0.00 99 1016.0
20260901055503 65 283 0.0 0.0 0.00 0.00 0.00 99 1015.8
20260901055000 64 283 0.0 0.0 0.00 0.00 0.00 99 1016.0
20260901054457 64 283 0.0 0.0 0.00 0.00 0.00 99 1016.2
20260901053953 64 103 0.0 0.0 0.00 0.00 0.00 99 1016.1
20260901053448 64 89 0.0 0.9 0.00 0.00 0.00 99 1016.0
20260901052943 64 101 0.9 0.9 0.00 0.00 0.00 99 1016.2
20260901052439 64 89 0.0 0.9 0.00 0.00 0.00 99 1016.1
20260901051938 64 66 0.0 0.9 0.00 0.00 0.00 99 1016.3
20260901051434 65 309 0.0 0.0 0.00 0.00 0.00 99 1016.2
20260901050933 65 322 0.0 0.9 0.00 0.00 0.00 99 1016.2
20260901050429 65 89 0.0 0.9 0.00 0.00 0.00 99 1016.5
20260901045928 65 102 0.0 1.7 0.00 0.00 0.00 99 1016.2
20260901045424 65 322 0.0 0.0 0.00 0.00 0.00 99 1016.3
20260901044918 65 49 0.0 0.0 0.00 0.00 0.00 99 1016.2
20260901044415 65 55 0.0 0.0 0.00 0.00 0.00 99 1016.2
20260901043910 65 95 0.0 0.0 0.00 0.00 0.00 99 1016.1
20260901043406 65 46 0.0 0.9 0.00 0.00 0.00 99 1016.3
20260901042900 65 89 0.0 0.9 0.00 0.00 0.00 99 1016.3
20260901042355 65 37 0.0 0.0 0.00 0.00 0.00 99 1016.1
20260901041850 65 40 0.0 0.9 0.00 0.00 0.00 99 1016.3
20260901041345 65 63 0.9 0.9 0.00 0.00 0.00 99 1016.5
20260901040840 65 76 0.9 1.7 0.00 0.00 0.00 99 1016.2
20260901040339 65 113 0.0 0.0 0.00 0.00 0.00 99 1016.4
20260901035838 65 250 0.9 0.9 0.00 0.44 0.44 99 1016.2
20260901035337 65 55 0.0 0.0 0.00 0.44 0.44 99 1016.1
20260901034836 65 89 0.0 0.9 0.00 0.44 0.44 99 1016.2
20260901034331 65 76 0.0 0.9 0.00 0.44 0.44 99 1016.2
20260901033831 65 66 0.0 0.9 0.00 0.44 0.44 99 1016.3
20260901033330 65 50 0.0 0.9 0.00 0.44 0.44 99 1016.3
20260901032829 65 315 0.0 0.9 0.00 0.44 0.44 99 1016.4
20260901032328 65 48 0.0 0.9 0.00 0.44 0.44 99 1016.2
20260901031823 65 55 0.0 0.9 0.00 0.44 0.44 99 1016.1
20260901031319 65 55 0.0 0.9 0.00 0.44 0.44 99 1016.5
20260901030819 65 66 0.0 1.7 0.00 0.44 0.44 99 1016.3
20260901030314 65 24 0.0 0.0 0.00 0.44 0.44 99 1016.5
20260901025813 66 50 0.0 0.0 0.00 0.44 0.44 99 1016.5
20260901025308 66 47 0.9 1.7 0.00 0.44 0.44 99 1016.3
20260901024803 66 32 0.0 1.7 0.02 0.44 0.44 99 1016.5
20260901024302 66 113 0.0 0.0 0.02 0.44 0.44 99 1016.4
20260901023800 66 85 0.9 0.9 0.00 0.43 0.43 99 1016.4
20260901023256 66 89 0.0 0.0 0.00 0.43 0.43 99 1016.7
20260901022751 66 10 0.9 1.7 0.00 0.43 0.43 99 1016.6
20260901022247 66 14 0.0 1.7 0.00 0.43 0.43 99 1016.7
20260901021741 66 345 0.0 0.9 0.00 0.43 0.43 99 1016.3
20260901021237 66 22 0.0 1.7 0.00 0.43 0.43 99 1016.5
20260901020732 66 83 1.7 1.7 0.00 0.43 0.43 99 1016.6
20260901020229 66 24 0.9 1.7 0.00 0.43 0.43 99 1016.6
20260901015728 66 29 0.9 1.7 0.00 0.43 0.43 99 1016.5
20260901015225 66 49 0.0 0.9 0.00 0.43 0.43 99 1016.7
20260901014724 66 60 0.0 0.9 0.00 0.43 0.43 99 1016.7
20260901014220 66 12 1.7 1.7 0.00 0.43 0.43 99 1016.6
20260901013715 66 23 0.9 0.9 0.00 0.43 0.43 99 1016.7
20260901013211 66 326 0.0 0.0 0.00 0.43 0.43 99 1016.7
20260901012706 66 24 0.0 0.9 0.00 0.43 0.43 99 1016.8
20260901012206 66 311 0.9 0.9 0.00 0.43 0.43 99 1017.0
20260901011702 67 316 0.9 0.9 0.00 0.43 0.43 99 1017.0
20260901011201 67 296 0.0 0.0 0.00 0.43 0.43 99 1016.7
20260901010656 67 89 0.0 0.0 0.00 0.43 0.43 99 1016.5
20260901010151 67 89 0.0 0.0 0.00 0.43 0.43 99 1016.7
20260901005649 67 89 0.0 0.0 0.02 0.43 0.43 99 1016.6
20260901005145 67 177 0.0 0.9 0.05 0.43 0.43 99 1016.7
20260901004644 67 269 0.0 1.7 0.05 0.43 0.43 99 1016.7
20260901004139 67 318 0.9 1.7 0.02 0.42 0.42 99 1016.6
20260901003634 67 298 1.7 1.7 0.02 0.42 0.42 99 1016.6
20260901003133 67 322 0.0 0.0 0.02 0.42 0.42 99 1016.5
20260901002633 66 22 0.0 0.0 0.02 0.42 0.42 99 1016.3
20260901002128 67 23 1.7 1.7 0.02 0.41 0.41 99 1016.3
20260901001623 67 302 0.0 0.0 0.02 0.41 0.41 99 1016.2
20260901001118 67 319 0.0 0.0 0.02 0.41 0.41 99 1016.3
20260901000613 67 119 0.0 0.0 0.02 0.41 0.41 99 1016.5
20260901000104 67 93 0.9 1.7 0.02 0.41 0.41 99 1016.5
20260831235557 67 315 0.0 1.7 0.05 0.41 0.41 99 1016.3
20260831235053 67 315 0.0 0.0 0.02 0.40 0.40 99 1016.3
20260831234552 67 269 0.9 1.7 0.00 0.40 0.40 99 1016.6
20260831234048 67 352 0.9 1.7 0.00 0.40 0.40 99 1016.4
20260831233542 67 320 1.7 1.7 0.00 0.40 0.40 99 1016.5
20260831233038 67 268 1.7 1.7 0.00 0.40 0.40 99 1016.7
20260831232533 67 286 0.0 1.7 0.00 0.40 0.40 99 1016.5
20260831232029 67 299 0.0 0.0 0.00 0.40 0.40 99 1016.5
20260831231526 67 269 0.0 1.7 0.00 0.40 0.40 99 1016.6
20260831231021 67 124 0.0 0.9 0.00 0.40 0.40 99 1016.8
20260831230517 67 315 0.0 0.9 0.02 0.40 0.40 99 1016.8
20260831230016 67 233 0.0 0.0 0.02 0.40 0.40 99 1016.7
20260831225512 67 234 0.0 0.9 0.00 0.39 0.39 99 1016.8
20260831225012 67 55 0.0 0.9 0.00 0.39 0.39 99 1016.9
20260831224507 67 49 0.0 0.0 0.00 0.39 0.39 99 1016.9
20260831224001 67 20 0.9 0.9 0.00 0.39 0.39 99 1017.0
20260831223457 67 304 0.0 0.0 0.00 0.39 0.39 99 1017.0
20260831222953 67 145 0.0 0.9 0.02 0.39 0.39 99 1017.2
20260831222449 67 110 0.0 1.7 0.05 0.39 0.39 99 1017.2
20260831221943 67 32 0.0 0.9 0.05 0.39 0.39 99 1017.5
20260831221439 67 55 0.9 1.7 0.05 0.39 0.39 99 1017.4
20260831220934 67 76 0.0 0.0 0.07 0.38 0.38 99 1017.3
20260831220430 67 222 0.0 0.9 0.07 0.38 0.38 99 1017.4
20260831215925 67 322 0.0 0.9 0.05 0.37 0.37 99 1017.5
20260831215421 67 89 0.0 0.0 0.07 0.37 0.37 99 1017.6
20260831214917 67 119 0.0 1.7 0.02 0.36 0.36 99 1017.5
20260831214414 67 0 0.0 1.7 0.00 0.35 0.35 99 1017.7
20260831213915 67 131 0.0 0.9 0.02 0.35 0.35 99 1017.5
20260831213411 67 66 0.0 0.9 0.02 0.35 0.35 99 1017.4
20260831212911 67 103 0.0 0.0 0.00 0.35 0.35 99 1017.5
20260831212408 67 22 0.0 0.9 0.00 0.35 0.35 99 1017.5
20260831211907 67 48 0.0 0.9 0.02 0.35 0.35 99 1017.5
20260831211402 67 66 0.0 0.9 0.02 0.35 0.35 99 1017.7
20260831210901 67 60 0.0 1.7 0.00 0.35 0.35 99 1017.5
20260831210357 67 38 0.0 0.9 0.00 0.35 0.35 99 1017.5
20260831205852 67 89 0.0 0.0 0.00 0.35 0.35 99 1017.2
20260831205348 67 117 0.0 1.7 0.00 0.35 0.35 99 1017.6
20260831204843 67 44 0.0 1.7 0.00 0.35 0.35 99 1017.5
20260831204342 67 40 0.0 0.9 0.00 0.35 0.35 99 1017.6
20260831203841 67 23 0.0 1.7 0.00 0.35 0.35 99 1017.5
20260831203336 67 94 0.9 1.7 0.00 0.35 0.35 99 1017.7
20260831202834 67 19 0.0 0.0 0.00 0.35 0.35 99 1017.7
20260831202324 67 54 0.9 1.7 0.00 0.35 0.35 99 1017.6
20260831201818 67 34 0.0 1.7 0.00 0.35 0.35 99 1017.6
20260831201316 66 105 1.7 1.7 0.00 0.35 0.35 99 1017.6
20260831200813 67 3 0.9 1.7 0.00 0.35 0.35 99 1017.8
20260831200307 67 37 0.0 0.0 0.02 0.35 0.35 99 1017.8
20260831195802 66 36 0.0 0.9 0.09 0.35 0.35 99 1018.0
20260831195258 66 19 0.9 0.9 0.19 0.34 0.34 99 1017.6
20260831194753 66 31 0.9 1.7 0.14 0.33 0.33 99 1017.8
20260831194249 66 0 0.9 1.7 0.09 0.31 0.31 99 1017.9
20260831193742 66 31 0.0 1.7 0.07 0.30 0.30 99 1017.8
20260831193238 66 100 0.9 1.7 0.02 0.29 0.29 99 1017.8
20260831192733 66 249 0.0 1.7 0.02 0.29 0.29 99 1017.8
20260831192228 66 97 1.7 1.7 0.02 0.29 0.29 99 1017.8
20260831191724 66 114 2.6 2.6 0.00 0.29 0.29 99 1018.0
20260831191220 66 0 0.0 0.9 0.00 0.29 0.29 99 1018.2
20260831190715 66 23 0.0 0.0 0.00 0.29 0.29 99 1018.3
20260831190214 66 212 0.0 0.9 0.00 0.29 0.29 99 1018.4
20260831185709 66 116 0.0 1.7 0.00 0.29 0.29 99 1018.2
20260831185205 66 359 1.7 2.6 0.00 0.29 0.29 99 1018.2
20260831184704 66 124 0.0 1.7 0.00 0.29 0.29 99 1018.4
20260831184200 65 308 1.7 2.6 0.02 0.29 0.29 99 1018.7
20260831183659 65 41 0.9 3.5 0.02 0.28 0.28 99 1018.7
20260831183159 65 113 0.0 1.7 0.02 0.28 0.28 99 1018.8
20260831182658 65 302 0.9 3.5 0.00 0.28 0.28 99 1018.6
20260831182154 65 44 0.0 1.7 0.00 0.28 0.28 99 1018.7
20260831181649 65 257 1.7 1.7 0.02 0.28 0.28 99 1018.7
20260831181149 65 45 0.0 2.6 0.02 0.28 0.28 99 1019.0
20260831180644 65 76 0.0 1.7 0.02 0.28 0.28 99 1019.0
20260831180134 65 214 0.9 3.5 0.02 0.28 0.28 99 1019.2
20260831175628 65 181 1.7 1.7 0.02 0.27 0.27 99 1019.1
20260831175125 65 217 0.0 0.9 0.07 0.27 0.27 99 1019.1
20260831174620 65 280 1.7 3.5 0.02 0.26 0.26 99 1019.0
20260831174119 65 13 0.0 1.7 0.02 0.26 0.26 99 1019.2
20260831173618 65 247 2.6 2.6 0.02 0.26 0.26 99 1019.3
20260831173115 65 101 0.0 1.7 0.09 0.26 0.26 99 1019.5
20260831172614 65 60 0.0 1.7 0.09 0.25 0.25 99 1019.2
20260831172109 65 237 0.0 1.7 0.09 0.24 0.24 99 1019.5
20260831171604 65 259 0.9 1.7 0.05 0.24 0.24 99 1019.5
20260831171102 65 89 0.0 0.9 0.05 0.23 0.23 99 1019.5
20260831170557 65 76 0.0 1.7 0.07 0.22 0.22 99 1019.5
20260831170055 65 195 0.0 2.6 0.12 0.22 0.22 99 1019.6
20260831165554 65 203 0.9 2.6 0.09 0.21 0.21 99 1019.6
20260831165051 65 214 0.9 3.5 0.05 0.20 0.20 99 1019.8
20260831164547 65 215 1.7 2.6 0.05 0.20 0.20 99 1019.6
20260831164042 65 112 1.7 1.7 0.05 0.19 0.19 99 1019.6
20260831163537 66 66 0.0 1.7 0.05 0.19 0.19 99 1019.9
20260831163033 66 38 0.0 0.9 0.09 0.18 0.18 99 1019.9
20260831162531 66 129 0.0 0.0 0.14 0.17 0.17 99 1019.7
20260831162030 66 112 0.9 1.7 0.26 0.17 0.17 99 1019.9
20260831161526 66 55 0.9 1.7 0.24 0.15 0.15 99 1019.9
20260831161022 65 66 0.0 0.9 0.40 0.12 0.12 99 1019.9
20260831160521 66 315 1.7 1.7 0.64 0.11 0.11 98 1019.8
20260831160017 67 345 0.0 0.9 0.26 0.04 0.04 96 1019.8
20260831155511 67 336 0.0 1.7 0.00 0.00 0.00 91 1019.9
20260831155007 68 325 0.9 1.7 0.00 0.00 0.00 91 1019.8
20260831154503 68 338 0.9 1.7 0.00 0.00 0.00 89 1019.6
20260831154001 68 218 0.0 1.7 0.00 0.00 0.00 88 1019.5
20260831153457 68 269 0.0 1.7 0.00 0.00 0.00 88 1019.5
20260831152954 69 309 0.0 1.7 0.00 0.00 0.00 88 1019.6
20260831152449 69 165 0.0 1.7 0.00 0.00 0.00 87 1019.7
20260831151944 68 310 0.0 1.7 0.00 0.00 0.00 89 1019.3
20260831151443 68 241 1.7 1.7 0.00 0.00 0.00 88 1019.3
20260831150938 68 142 0.0 1.7 0.00 0.00 0.00 88 1019.7
20260831150434 68 293 1.7 3.5 0.00 0.00 0.00 88 1019.8
20260831145933 68 116 0.0 1.7 0.00 0.00 0.00 87 1019.6
20260831145429 68 141 0.0 1.7 0.00 0.00 0.00 88 1019.4
20260831144925 68 179 0.0 1.7 0.00 0.00 0.00 89 1019.3
20260831144415 68 286 1.7 1.7 0.00 0.00 0.00 89 1019.7
20260831143916 68 105 0.0 1.7 0.00 0.00 0.00 88 1019.6
20260831143410 68 50 0.9 0.9 0.00 0.00 0.00 90 1019.6
20260831142906 68 81 0.9 1.7 0.00 0.00 0.00 90 1019.6
20260831142402 68 66 0.0 0.9 0.00 0.00 0.00 90 1019.5
20260831141902 67 317 0.9 2.6 0.00 0.00 0.00 91 1019.5
20260831141355 68 228 2.6 3.5 0.00 0.00 0.00 90 1019.5
20260831140851 68 125 1.7 2.6 0.00 0.00 0.00 90 1019.6
20260831140345 67 342 0.0 1.7 0.00 0.00 0.00 90 1019.6
20260831135844 67 254 0.0 1.7 0.00 0.00 0.00 91 1019.5
20260831135339 67 321 0.0 1.7 0.00 0.00 0.00 92 1019.6
20260831134834 66 124 0.0 1.7 0.00 0.00 0.00 93 1019.7
20260831134331 66 191 0.0 1.7 0.00 0.00 0.00 93 1019.5
20260831133830 66 269 0.0 1.7 0.00 0.00 0.00 93 1019.7
20260831133329 65 139 0.0 1.7 0.00 0.00 0.00 94 1019.7
20260831132825 65 76 0.0 0.9 0.00 0.00 0.00 95 1019.8
20260831132320 64 109 1.7 1.7 0.00 0.00 0.00 96 1019.8
20260831131814 64 105 0.9 1.7 0.00 0.00 0.00 96 1019.9
20260831131311 64 87 0.0 1.7 0.00 0.00 0.00 96 1020.2
20260831130805 64 140 0.0 0.9 0.00 0.00 0.00 96 1020.1
20260831130301 64 110 0.0 0.9 0.00 0.00 0.00 96 1020.1
20260831125800 63 89 0.0 0.0 0.00 0.00 0.00 97 1020.0
20260831125256 63 44 0.0 0.9 0.00 0.00 0.00 98 1020.1
20260831124755 63 105 0.9 1.7 0.00 0.00 0.00 98 1020.0
20260831124252 63 106 1.7 2.6 0.00 0.00 0.00 98 1020.0
20260831123752 62 43 0.9 1.7 0.00 0.00 0.00 99 1020.0
20260831123251 62 45 0.9 1.7 0.00 0.00 0.00 99 1019.8
20260831122746 61 20 1.7 2.6 0.00 0.00 0.00 99 1020.0
20260831122242 61 86 1.7 2.6 0.00 0.00 0.00 99 1019.9
20260831121741 60 83 1.7 1.7 0.00 0.00 0.00 99 1020.1
20260831121237 60 71 1.7 1.7 0.00 0.00 0.00 99 1020.0
20260831120732 60 82 0.0 1.7 0.00 0.00 0.00 99 1020.3
20260831120227 60 82 0.9 0.9 0.00 0.00 0.00 99 1020.4
20260831115722 60 32 1.7 1.7 0.00 0.00 0.00 99 1020.2
20260831115219 60 53 1.7 1.7 0.00 0.00 0.00 99 1020.3
20260831114718 60 52 1.7 1.7 0.00 0.00 0.00 99 1020.4
20260831114217 59 53 0.9 1.7 0.00 0.00 0.00 99 1020.1
20260831113713 59 55 1.7 1.7 0.00 0.00 0.00 99 1020.1
20260831113212 59 31 0.9 1.7 0.00 0.00 0.00 99 1020.2
20260831112707 59 41 1.7 1.7 0.00 0.00 0.00 99 1019.9
20260831112202 59 58 0.0 0.9 0.00 0.00 0.00 99 1020.2
20260831111657 59 25 1.7 1.7 0.00 0.00 0.00 99 1020.0
20260831111154 59 89 1.7 1.7 0.00 0.00 0.00 99 1020.3
20260831110649 59 70 0.9 1.7 0.00 0.00 0.00 99 1020.1
20260831110144 59 43 0.9 1.7 0.00 0.00 0.00 99 1020.0
20260831105643 59 45 1.7 1.7 0.00 0.00 0.00 99 1019.8
20260831105138 59 27 1.7 1.7 0.00 0.00 0.00 99 1019.7
20260831104633 59 51 0.0 1.7 0.00 0.00 0.00 99 1019.5
20260831104130 59 60 1.7 1.7 0.00 0.00 0.00 99 1019.4
20260831103625 59 78 0.9 1.7 0.00 0.00 0.00 99 1019.6
20260831103120 59 45 0.9 1.7 0.00 0.00 0.00 99 1019.4
20260831102615 59 48 0.9 1.7 0.00 0.00 0.00 99 1019.2
20260831102110 59 19 0.0 0.9 0.00 0.00 0.00 99 1019.4
20260831101609 59 34 0.9 1.7 0.00 0.00 0.00 99 1019.5
20260831101105 59 38 1.7 1.7 0.00 0.00 0.00 99 1019.3
20260831100601 59 65 0.9 1.7 0.00 0.00 0.00 99 1019.5
20260831100052 59 15 0.9 1.7 0.00 0.00 0.00 99 1019.6
20260831095549 59 78 1.7 2.6 0.00 0.00 0.00 99 1019.6
20260831095044 59 29 1.7 2.6 0.00 0.00 0.00 99 1019.6
20260831094540 59 66 1.7 1.7 0.00 0.00 0.00 99 1019.3
20260831094036 59 59 0.0 1.7 0.00 0.00 0.00 99 1019.4
20260831093531 59 52 1.7 1.7 0.00 0.00 0.00 99 1019.4
20260831093027 59 12 0.0 1.7 0.00 0.00 0.00 99 1019.7
20260831092522 59 322 0.0 0.9 0.00 0.00 0.00 99 1019.5
20260831092018 59 87 0.9 1.7 0.00 0.00 0.00 99 1019.8
20260831091513 59 84 1.7 1.7 0.00 0.00 0.00 99 1019.7
20260831091009 59 51 0.9 1.7 0.00 0.00 0.00 99 1019.7
20260831090504 59 101 0.9 1.7 0.00 0.00 0.00 99 1019.5
20260831090000 59 37 1.7 1.7 0.00 0.00 0.00 99 1019.5
20260831085455 59 42 1.7 1.7 0.00 0.00 0.00 99 1019.7
20260831084954 58 63 0.9 1.7 0.00 0.00 0.00 99 1019.5
20260831084450 58 42 1.7 1.7 0.00 0.00 0.00 99 1019.3
20260831083947 59 25 1.7 1.7 0.00 0.00 0.00 99 1019.1
20260831083442 58 35 1.7 2.6 0.00 0.00 0.00 99 1019.1
20260831082941 58 27 1.7 1.7 0.00 0.00 0.00 99 1019.5
20260831082436 59 37 1.7 1.7 0.00 0.00 0.00 99 1019.6
20260831081931 58 89 1.7 1.7 0.00 0.00 0.00 99 1019.5